sat.trackr.live / text

‹ back to catalog

EUTELSAT 36B

NORAD 36101 · 2009-065A

PAYLOAD ACTIVE UNKNOWN

§ Identity

Operator
Country
EUTE
Launch date
2009-11-24
Launch site
TYMSC
Launch vehicle
Mass (kg)
RCS (m²)
12.59

Purposes: comms

External: N2YO · Heavens-Above · Gunter

§ Orbital elements

Epoch: 2026-05-25T03:59:00.881088Z

Period
1,436.12 min
Inclination
0.4351°
Eccentricity
0.0005770
Mean motion
1.00270236 rev/d
Perigee alt
35,762.7 km
Apogee alt
35,811.4 km
Semi-major
42,165.2 km
B*
0.0000e+0
RAAN
80.7652°
Arg perigee
339.1779°
Mean anomaly
293.0633°
Rev number
6,047

§ Raw data

EUTELSAT 36B1 36101U 09065A   26145.16598242  .00000110  00000+0  00000+0 0  99962 36101   0.4351  80.7652 0005770 339.1779 293.0633  1.00270236 60476

JSON: /api/v1/satellites/36101 · /tle

For live sub-satellite position, see the globe view (requires WebGL).

§ Visibility from observer

Set your observer location to see the next 7 days of passes ≥ 10°. The values pass through the URL so the page stays shareable.

No JS? Fill the form by hand. The geolocation button needs JavaScript.